Wind_Speed
49 49 46 40 37 39 35 36 34 37 35 33 34 32 28 24 26 27 27 29 21 23 23 27 25 25 28 26 27 23 17 19 25 29 34 34 36 41 44 42 43 44 45 51 50
45 47 44 41 38 39 37 41 40 33 34 32 38 39 30 27 27 30 31 28 29 28 27 30 31 28 31 30 32 31 21 20 23 27 31 34 39 42 43 45 45 45 45 40 38
44 44 44 41 39 42 43 37 37 35 37 39 41 36 29 29 29 34 34 30 34 31 31 33 33 33 32 32 35 40 30 27 24 25 26 29 33 41 41 49 48 47 52 53 56
48 46 47 44 43 38 36 36 36 34 38 43 40 29 31 31 33 35 35 36 37 39 33 38 32 35 35 33 39 42 38 34 32 29 29 27 31 31 33 40 46 44 48 53 57
51 47 46 47 43 47 40 35 33 35 42 43 39 31 34 33 37 37 37 38 43 44 40 42 38 32 34 37 44 50 46 40 37 35 31 29 31 31 34 36 38 37 33 40 46
46 53 50 46 42 39 39 36 42 40 41 41 36 38 37 37 40 43 43 43 46 40 45 36 38 41 38 46 54 58 56 42 40 39 35 32 31 31 32 34 38 33 34 39 39
45 46 46 35 35 30 32 37 35 43 37 39 40 42 38 43 47 47 45 49 44 40 40 42 48 44 51 60 60 63 54 43 41 41 42 37 35 36 33 33 35 41 38 32 33
43 41 41 43 41 44 47 47 48 40 38 43 43 45 48 47 44 47 48 47 46 49 49 53 56 58 60 62 66 60 55 46 41 44 42 40 41 37 39 35 27 38 39 34 34
52 48 48 50 50 54 52 46 38 38 40 42 45 44 43 43 45 45 39 41 47 52 57 59 64 68 70 68 66 62 59 57 52 42 45 42 45 43 41 39 31 38 39 38 37
57 52 53 53 51 51 40 40 39 40 40 40 40 39 41 48 46 43 50 55 60 63 66 69 72 72 72 68 60 53 52 57 55 47 45 47 47 46 47 42 36 35 38 39 37
54 49 46 51 42 36 35 36 41 41 39 40 41 41 45 42 45 51 57 63 63 62 67 70 71 66 54 49 46 45 47 53 53 49 47 49 52 52 49 44 40 38 36 35 37
50 47 45 45 45 45 42 43 45 42 43 43 46 48 50 52 55 59 65 64 63 70 70 62 51 45 42 42 42 41 43 46 48 49 51 55 54 53 49 43 43 41 37 36 34
48 41 41 41 40 42 42 45 45 47 43 45 50 51 51 53 57 63 66 70 68 66 53 44 41 37 37 37 38 38 39 41 43 50 52 58 56 57 50 44 42 40 41 38 38
47 42 40 39 41 38 39 43 41 39 42 45 46 49 53 56 59 62 60 61 58 46 43 40 37 34 34 31 32 36 32 36 40 47 54 59 60 56 50 47 45 45 45 41 40
46 43 42 39 39 33 35 40 45 48 43 47 51 55 58 58 60 61 58 48 41 40 41 42 42 37 32 27 25 32 33 32 35 41 51 57 53 54 55 49 47 48 47 47 45
46 42 40 40 38 39 39 43 45 46 45 49 53 56 57 62 59 53 44 39 39 37 37 39 41 37 30 26 22 24 30 30 33 39 45 49 50 48 55 53 52 51 51 50 48
45 43 44 42 41 41 44 44 37 42 48 53 53 56 60 57 49 39 35 35 32 32 34 35 32 28 27 22 19 21 25 30 33 34 39 41 46 49 51 52 53 52 53 53 51
49 46 45 45 43 46 50 50 49 51 55 56 55 54 49 44 37 33 33 34 30 29 33 27 25 22 17 14 14 13 15 24 32 36 38 36 42 45 48 50 50 50 55 55 55
50 49 43 42 45 52 53 54 53 56 56 55 51 47 40 37 32 31 33 35 30 27 32 28 23 21 11 13 14 15 13 13 19 27 34 39 39 40 43 42 42 46 53 56 56
51 50 48 48 49 50 52 53 53 55 54 52 49 43 39 33 31 30 28 34 35 31 29 33 28 25 16 13 15 14 16 17 20 20 22 24 29 37 40 43 45 45 48 53 56
52 53 53 51 52 54 54 51 50 52 54 52 47 45 38 33 32 34 31 30 36 34 28 34 32 27 23 19 19 20 20 20 20 18 22 24 27 25 28 35 41 41 47 52 55
54 53 53 53 52 52 54 54 51 53 50 48 47 42 36 33 34 33 30 29 34 37 33 32 35 34 28 25 25 24 23 25 31 32 27 23 31 26 23 21 25 37 44 49 48
57 55 54 53 54 54 57 53 50 51 52 51 48 38 35 35 34 34 34 33 32 35 35 34 33 37 35 29 27 27 29 30 34 37 37 36 37 36 26 21 22 27 35 44 46
59 55 57 54 51 56 58 57 55 53 55 53 43 38 36 37 39 38 39 37 34 33 36 36 36 37 37 35 32 31 33 36 39 40 39 43 45 46 38 28 22 26 30 38 45
58 56 55 52 55 54 56 55 55 53 52 47 41 38 37 39 41 40 38 37 35 36 38 38 38 39 38 38 36 37 38 40 42 41 40 43 46 46 47 41 34 28 27 34 46
58 57 56 58 57 58 59 60 57 56 48 43 42 43 41 41 42 42 40 39 38 38 40 40 41 43 41 39 39 39 42 47 44 42 44 46 46 48 47 46 42 39 33 27 30
58 58 59 62 61 63 62 61 58 54 46 44 46 45 44 44 44 42 40 40 41 42 42 43 46 47 43 42 40 37 47 46 44 49 51 52 53 52 51 51 50 41 38 40 38
Wind_Direction
232 233 239 243 249 251 254 265 271 280 283 289 290 284 278 278 287 293 305 313 312 310 320 320 320 317 319 324 329 308 291 274 258 250 248 244 246 249 251 253 251 254 255 251 259
230 234 239 240 248 253 260 264 268 274 284 283 285 277 271 279 286 288 299 303 295 301 308 320 314 313 319 318 318 317 286 287 277 264 258 249 246 249 253 254 257 256 253 244 251
231 232 235 239 248 257 258 258 265 273 284 277 274 272 266 282 286 290 299 299 301 289 299 307 310 305 302 310 314 315 297 285 283 273 266 256 252 246 247 250 251 254 252 244 250
232 234 237 239 247 253 257 262 268 273 275 274 271 273 271 288 288 292 292 297 296 291 292 297 292 296 293 296 307 311 301 286 277 276 266 262 260 256 252 252 250 253 253 253 254
234 237 238 241 252 254 260 266 266 270 272 281 271 275 281 287 289 290 290 291 294 289 290 294 292 285 286 290 297 300 303 285 274 269 267 259 266 263 249 248 251 252 260 265 260
235 236 240 242 251 257 259 260 263 263 265 275 273 278 282 288 289 292 291 292 294 281 286 289 290 290 281 291 295 297 297 286 273 266 263 263 259 268 265 260 253 248 248 260 263
234 237 239 239 239 242 243 249 256 257 270 264 270 281 284 290 290 291 289 292 279 279 289 296 288 279 286 295 296 298 296 278 280 262 260 260 259 257 259 252 241 254 255 264 265
233 242 245 249 240 251 247 260 271 270 262 267 279 282 285 286 292 294 291 289 277 280 283 284 292 291 290 291 293 293 289 278 280 264 258 255 257 257 256 256 242 248 254 258 261
235 243 245 245 248 262 268 267 257 264 272 274 278 279 284 285 292 284 280 283 284 287 289 288 292 291 292 292 290 287 283 278 273 265 261 256 258 248 252 253 249 241 247 250 259
242 248 249 253 255 259 256 256 261 271 277 274 276 283 287 287 280 274 289 294 294 293 298 296 295 295 293 291 285 277 269 267 265 261 259 258 257 252 248 247 251 252 246 247 254
236 230 238 247 246 246 258 263 266 274 276 271 272 281 281 276 281 291 297 295 297 297 299 298 296 294 291 285 277 270 264 255 257 259 256 252 253 251 249 247 252 256 256 255 249
234 231 234 240 247 254 257 259 263 272 275 270 276 280 274 280 286 292 295 296 296 298 301 300 298 292 286 282 273 267 262 260 256 250 250 247 252 253 252 248 250 256 263 264 259
251 241 245 251 256 252 257 257 261 265 271 271 275 274 280 289 288 291 294 296 299 303 302 297 298 297 290 284 278 267 260 259 256 249 250 253 248 249 249 251 250 252 258 260 260
246 246 249 255 252 252 258 259 263 262 264 262 276 287 290 292 296 298 302 306 307 305 303 307 311 309 304 298 281 266 262 258 253 250 247 251 249 249 249 249 252 253 252 256 258
244 248 250 248 249 256 259 255 259 263 264 269 274 282 288 294 301 302 305 307 305 308 312 316 316 317 318 312 290 273 256 251 250 254 253 253 256 262 251 246 248 250 251 252 253
242 245 247 246 250 253 253 256 259 259 266 271 279 284 290 295 302 304 304 306 307 308 315 315 313 319 324 317 301 285 266 259 258 254 252 253 253 255 261 251 246 247 248 252 254
243 245 243 241 246 249 255 253 265 273 273 280 286 292 296 298 299 299 297 301 306 313 314 313 315 323 323 317 311 291 273 258 258 262 260 257 254 252 256 257 253 250 251 252 251
242 242 242 240 246 249 250 257 269 276 277 281 290 292 297 298 294 290 295 299 302 305 311 325 311 322 343 357 343 321 289 273 263 257 260 258 259 256 257 259 257 255 253 253 251
240 240 238 244 244 249 251 259 264 272 279 286 292 296 296 289 281 284 293 294 298 303 308 318 314 314 341 355 355 5 352 323 289 277 269 265 262 261 259 260 257 257 257 252 251
238 240 242 242 246 251 256 260 266 272 280 285 290 291 289 278 272 274 281 284 293 302 310 310 320 319 322 326 332 346 351 335 329 323 305 295 285 277 271 266 261 256 254 252 250
240 239 243 247 249 254 258 263 269 275 279 286 287 289 278 269 265 270 277 276 284 290 297 301 310 317 316 308 315 323 332 338 343 345 344 335 315 310 291 278 270 265 261 257 253
241 242 243 245 250 256 261 264 269 274 281 284 286 281 272 264 267 271 274 279 279 286 292 299 302 306 314 308 312 320 320 322 331 334 337 342 349 335 325 299 280 262 259 259 256
241 243 246 250 253 257 262 267 271 275 282 285 284 267 265 264 262 267 272 276 278 284 291 296 295 299 307 312 307 311 315 311 318 321 328 333 336 346 347 320 282 265 259 259 259
244 244 247 251 256 261 264 269 271 275 281 285 275 260 266 265 263 264 269 275 280 281 287 288 289 292 296 302 304 305 306 310 313 317 326 328 334 332 343 329 308 269 256 255 255
242 245 248 252 254 257 264 270 277 280 282 274 264 262 268 270 267 268 273 276 277 281 281 283 283 288 290 293 298 302 305 305 308 317 323 322 326 322 326 329 321 306 292 268 248
242 243 249 250 253 262 269 272 275 275 269 254 257 263 268 269 270 273 278 277 275 276 277 280 282 285 289 289 291 298 300 302 310 312 315 317 317 315 314 314 311 308 300 295 281
243 246 247 251 257 264 268 272 275 273 258 250 254 262 266 269 271 274 275 273 272 273 274 277 281 284 290 288 289 297 294 302 304 307 311 312 311 312 310 307 306 304 299 300 300
Height
10895 10900 10904 10908 10911 10914 10916 10917 10919 10919 10919 10918 10916 10917 10916 10916 10916 10915 10914 10913 10913 10911 10909 10908 10907 10906 10903 10901 10899 10899 10902 10904 10903 10903 10902 10904 10904 10899 10900 10902 10900 10899 10897 10900 10900
10889 10894 10899 10903 10906 10908 10910 10912 10913 10914 10913 10912 10911 10911 10912 10912 10911 10911 10909 10909 10909 10907 10906 10904 10903 10902 10900 10897 10894 10894 10897 10897 10897 10897 10896 10898 10896 10895 10894 10893 10892 10894 10891 10891 10891
10883 10888 10893 10897 10900 10902 10904 10906 10907 10908 10908 10907 10907 10906 10907 10906 10906 10906 10904 10903 10904 10902 10901 10899 10898 10897 10896 10894 10890 10889 10891 10891 10891 10891 10891 10890 10890 10888 10885 10886 10887 10883 10883 10885 10883
10877 10882 10886 10891 10894 10896 10898 10900 10902 10902 10902 10901 10901 10901 10901 10901 10901 10900 10898 10898 10898 10896 10895 10894 10892 10891 10890 10889 10885 10883 10886 10885 10884 10883 10884 10885 10882 10881 10880 10878 10878 10876 10875 10874 10871
10871 10875 10880 10884 10887 10890 10892 10895 10896 10897 10897 10896 10895 10896 10896 10896 10894 10893 10892 10891 10891 10889 10889 10888 10885 10884 10884 10882 10879 10876 10880 10878 10878 10876 10877 10880 10876 10875 10873 10872 10871 10873 10871 10865 10866
10864 10869 10873 10876 10881 10884 10885 10888 10890 10891 10891 10890 10890 10890 10890 10889 10888 10886 10885 10884 10883 10882 10882 10880 10878 10878 10876 10874 10872 10869 10868 10870 10869 10869 10869 10870 10872 10868 10866 10865 10866 10867 10867 10862 10863
10858 10863 10868 10872 10875 10878 10880 10883 10883 10884 10884 10883 10884 10882 10882 10881 10880 10879 10877 10876 10875 10874 10874 10872 10870 10869 10868 10864 10862 10859 10857 10857 10860 10860 10860 10861 10861 10860 10858 10859 10863 10858 10859 10862 10860
10852 10856 10860 10865 10869 10872 10874 10875 10876 10876 10876 10875 10875 10874 10875 10875 10873 10870 10869 10868 10867 10866 10864 10862 10859 10857 10855 10852 10850 10849 10845 10844 10849 10849 10851 10853 10848 10848 10847 10848 10854 10849 10853 10858 10858
10844 10849 10853 10858 10861 10863 10866 10867 10867 10867 10868 10867 10867 10867 10867 10866 10866 10863 10862 10861 10858 10855 10853 10850 10846 10843 10839 10837 10835 10836 10832 10831 10833 10837 10838 10840 10834 10839 10839 10842 10845 10845 10850 10853 10853
10837 10842 10846 10850 10853 10856 10858 10858 10859 10859 10859 10859 10859 10861 10860 10858 10857 10855 10853 10851 10848 10844 10841 10835 10831 10826 10822 10820 10818 10818 10816 10814 10818 10824 10825 10826 10823 10828 10829 10832 10838 10839 10843 10847 10850
10829 10833 10837 10841 10843 10847 10849 10851 10851 10851 10851 10851 10852 10854 10853 10851 10848 10846 10843 10841 10836 10833 10829 10821 10816 10811 10806 10803 10802 10802 10801 10799 10803 10811 10810 10810 10805 10809 10817 10830 10835 10836 10837 10841 10846
10820 10823 10828 10832 10835 10838 10839 10841 10841 10842 10844 10844 10844 10844 10843 10841 10839 10835 10833 10828 10823 10821 10814 10806 10801 10796 10791 10788 10788 10790 10790 10788 10795 10798 10796 10789 10794 10803 10811 10821 10826 10832 10835 10835 10837
10809 10814 10819 10823 10826 10828 10829 10831 10832 10835 10836 10838 10837 10834 10833 10833 10829 10827 10822 10816 10811 10806 10800 10795 10789 10784 10779 10777 10778 10778 10779 10782 10782 10785 10783 10773 10784 10787 10802 10811 10817 10822 10823 10826 10827
10799 10806 10810 10814 10817 10818 10821 10823 10825 10827 10828 10830 10827 10824 10823 10822 10819 10815 10811 10805 10799 10794 10789 10785 10780 10776 10771 10770 10768 10767 10770 10771 10771 10770 10769 10763 10771 10785 10794 10801 10807 10810 10813 10816 10817
10791 10797 10801 10805 10808 10810 10812 10814 10815 10819 10822 10820 10820 10818 10814 10813 10810 10804 10801 10796 10792 10786 10780 10775 10770 10768 10765 10762 10760 10758 10760 10761 10761 10760 10757 10760 10771 10772 10780 10792 10797 10799 10803 10804 10806
10782 10787 10793 10797 10800 10803 10804 10807 10808 10810 10811 10812 10812 10809 10805 10803 10800 10795 10792 10788 10784 10780 10775 10769 10764 10760 10758 10755 10751 10751 10753 10753 10753 10750 10749 10755 10761 10766 10763 10776 10782 10785 10789 10792 10795
10773 10779 10785 10789 10793 10794 10796 10800 10800 10799 10800 10803 10803 10800 10797 10794 10790 10789 10784 10782 10779 10774 10770 10766 10760 10756 10753 10750 10747 10745 10745 10745 10744 10744 10744 10747 10749 10754 10753 10763 10770 10776 10776 10778 10783
10765 10771 10776 10780 10784 10785 10788 10791 10792 10788 10791 10793 10795 10794 10790 10785 10780 10781 10778 10776 10775 10770 10765 10764 10758 10755 10751 10746 10744 10741 10740 10739 10737 10737 10735 10737 10739 10744 10748 10754 10760 10763 10763 10765 10769
10755 10761 10768 10771 10774 10776 10780 10783 10785 10782 10782 10783 10784 10784 10782 10780 10776 10776 10770 10767 10769 10768 10761 10761 10758 10753 10751 10746 10743 10740 10737 10734 10732 10732 10730 10730 10733 10734 10738 10740 10745 10748 10747 10751 10754
10746 10752 10758 10761 10763 10766 10770 10774 10776 10774 10774 10775 10776 10775 10774 10772 10771 10772 10769 10761 10759 10761 10757 10752 10753 10748 10748 10745 10741 10739 10736 10733 10730 10729 10727 10726 10726 10727 10732 10731 10732 10733 10730 10732 10738
10736 10742 10747 10750 10753 10756 10760 10765 10767 10764 10765 10764 10766 10767 10764 10765 10764 10763 10764 10759 10752 10752 10753 10747 10746 10747 10743 10740 10737 10734 10731 10729 10729 10727 10725 10721 10718 10724 10722 10721 10721 10721 10716 10716 10721
10725 10732 10736 10739 10744 10746 10749 10752 10756 10753 10755 10754 10756 10757 10755 10756 10755 10753 10754 10753 10747 10743 10745 10743 10738 10737 10739 10736 10732 10729 10727 10724 10721 10720 10720 10719 10716 10716 10713 10712 10709 10708 10704 10702 10705
10712 10720 10725 10730 10733 10735 10735 10739 10743 10744 10744 10744 10745 10746 10745 10745 10747 10744 10742 10742 10741 10738 10736 10735 10732 10727 10727 10729 10728 10724 10721 10718 10716 10712 10711 10710 10709 10709 10708 10701 10697 10695 10694 10693 10693
10702 10709 10712 10718 10721 10722 10723 10728 10732 10733 10732 10732 10734 10735 10734 10734 10734 10735 10733 10734 10734 10732 10728 10727 10724 10721 10718 10719 10718 10717 10714 10710 10708 10705 10703 10698 10698 10697 10700 10697 10692 10687 10683 10682 10682
10691 10696 10700 10707 10709 10710 10711 10717 10721 10723 10721 10719 10720 10722 10721 10721 10721 10723 10725 10725 10724 10722 10719 10717 10715 10713 10710 10709 10708 10705 10702 10700 10699 10696 10695 10691 10690 10686 10687 10688 10686 10683 10680 10675 10672
10678 10683 10687 10694 10696 10697 10700 10705 10708 10710 10710 10708 10708 10707 10709 10709 10710 10711 10713 10714 10714 10711 10708 10705 10704 10702 10701 10699 10699 10696 10690 10686 10686 10684 10684 10681 10680 10678 10676 10674 10674 10673 10670 10668 10666
10663 10670 10676 10679 10682 10685 10690 10691 10694 10696 10697 10697 10697 10698 10698 10698 10698 10700 10700 10700 10701 10699 10697 10695 10690 10689 10690 10686 10688 10689 10677 10675 10674 10671 10670 10668 10665 10666 10665 10663 10660 10657 10656 10654 10653